�ϑ��_��,����,�C��[��],�C�� �i�����,���x[%RH],���x �i�����,���n�C��[hPa],���n�C�� �i�����,�C�ʋC��[hPa],�C�ʋC�� �i�����,����[m/s],���� �i�����,����,���� �i�����,�ő�u�ԕ���[m/s],�ő�u�ԕ��� �i�����,�ő�u�ԕ���������,�ő�u�ԕ��������� �i�����,����[W/�u],���� �i�����,���J,���J �i�����,1���ԉJ��[mm/h],1���ԉJ�� �i�����,�ϐ��[cm],�ϐ�� �i�����,�~���[cm/h],�~��� �i�����,����[m],���� �i�����,���ʕω�,���ʕω� �i�����
�k�C���X�y�[�X�|�[�g(�����),2023/03/01 01:00:00,8.5,0,50,0,1006.2,0,1009.1,0,4.1,0,�쐼,0,9.4,0,���쐼,0,0,0,�Ȃ�,0,,,,,,,,,,
�k�C���X�y�[�X�|�[�g(�����),2023/03/01 02:00:00,8.0,0,49,0,1005.3,0,1008.2,0,4.1,0,�쐼,0,6.7,0,���쐼,0,0,0,�Ȃ�,0,,,,,,,,,,
�k�C���X�y�[�X�|�[�g(�����),2023/03/01 03:00:00,8.6,0,47,0,1005.0,0,1007.9,0,4.9,0,�쐼,0,11.7,0,���쐼,0,0,0,�Ȃ�,0,,,,,,,,,,
�k�C���X�y�[�X�|�[�g(�����),2023/03/01 04:00:00,6.7,0,53,0,1005.7,0,1008.6,0,2.3,0,�쐼,0,7.2,0,�쐼,0,0,0,�Ȃ�,0,,,,,,,,,,
�k�C���X�y�[�X�|�[�g(�����),2023/03/01 05:00:00,8.0,0,50,0,1006.4,0,1009.3,0,6.2,0,��,0,11.0,0,��,0,0,0,�Ȃ�,0,,,,,,,,,,
�k�C���X�y�[�X�|�[�g(�����),2023/03/01 06:00:00,6.7,0,55,0,1007.0,0,1009.9,0,2.5,0,��쐼,0,9.4,0,���쐼,0,0,0,�Ȃ�,0,,,,,,,,,,
�k�C���X�y�[�X�|�[�g(�����),2023/03/01 07:00:00,7.0,0,55,0,1007.9,0,1010.8,0,4.6,0,�쐼,0,6.6,0,���쐼,0,29,0,�Ȃ�,0,,,,,,,,,,
�k�C���X�y�[�X�|�[�g(�����),2023/03/01 08:00:00,8.2,0,47,0,1008.6,0,1011.5,0,3.0,0,�쐼,0,6.3,0,�쐼,0,136,0,�Ȃ�,0,,,,,,,,,,
�k�C���X�y�[�X�|�[�g(�����),2023/03/01 09:00:00,6.5,0,49,0,1008.8,0,1011.8,0,2.5,0,���k��,0,5.6,0,��,0,296,0,�Ȃ�,0,,,,,,,,,,
�k�C���X�y�[�X�|�[�g(�����),2023/03/01 10:00:00,6.7,0,54,0,1009.5,0,1012.5,0,2.5,0,���k��,0,7.2,0,�k��,0,445,0,�Ȃ�,0,,,,,,,,,,
�k�C���X�y�[�X�|�[�g(�����),2023/03/01 11:00:00,6.0,0,53,0,1009.8,0,1012.8,0,3.2,0,���쓌,0,5.3,0,��,0,584,0,�Ȃ�,0,,,,,,,,,,
�k�C���X�y�[�X�|�[�g(�����),2023/03/01 12:00:00,6.8,0,51,0,1009.5,0,1012.5,0,3.9,0,��,0,5.4,0,���쓌,0,642,0,�Ȃ�,0,,,,,,,,,,
�k�C���X�y�[�X�|�[�g(�����),2023/03/01 13:00:00,6.5,0,53,0,1009.1,0,1012.1,0,4.2,0,��,0,6.1,0,��,0,637,0,�Ȃ�,0,,,,,,,,,,
�k�C���X�y�[�X�|�[�g(�����),2023/03/01 14:00:00,6.4,0,53,0,1009.3,0,1012.3,0,3.5,0,��,0,6.4,0,��,0,538,0,�Ȃ�,0,,,,,,,,,,
�k�C���X�y�[�X�|�[�g(�����),2023/03/01 15:00:00,5.9,0,55,0,1009.9,0,1012.9,0,2.9,0,���쓌,0,4.6,0,���k��,0,391,0,�Ȃ�,0,,,,,,,,,,
�k�C���X�y�[�X�|�[�g(�����),2023/03/01 16:00:00,4.6,0,61,0,1010.5,0,1013.5,0,2.9,0,�쓌,0,5.9,0,���쓌,0,204,0,�Ȃ�,0,,,,,,,,,,
�k�C���X�y�[�X�|�[�g(�����),2023/03/01 17:00:00,4.5,0,63,0,1010.9,0,1013.9,0,2.2,0,���쓌,0,4.5,0,�쓌,0,56,0,�Ȃ�,0,,,,,,,,,,
�k�C���X�y�[�X�|�[�g(�����),2023/03/01 18:00:00,3.6,0,67,0,1011.6,0,1014.6,0,1.0,0,�쓌,0,3.1,0,���쓌,0,1,0,�Ȃ�,0,,,,,,,,,,
�k�C���X�y�[�X�|�[�g(�����),2023/03/01 19:00:00,1.4,0,84,0,1012.4,0,1015.4,0,5.4,0,�k�k��,0,10.0,0,�k�k��,0,0,0,�Ȃ�,0,,,,,,,,,,
�k�C���X�y�[�X�|�[�g(�����),2023/03/01 20:00:00,1.0,0,84,0,1012.4,0,1015.4,0,3.0,0,�k��,0,7.8,0,�k�k��,0,0,0,�Ȃ�,0,,,,,,,,,,
�k�C���X�y�[�X�|�[�g(�����),2023/03/01 21:00:00,0.8,0,85,0,1012.8,0,1015.8,0,2.7,0,�k��,0,7.3,0,�k��,0,0,0,�Ȃ�,0,,,,,,,,,,
�k�C���X�y�[�X�|�[�g(�����),2023/03/01 22:00:00,0.8,0,87,0,1012.5,0,1015.5,0,3.2,0,�k��,0,6.2,0,�k��,0,0,0,�Ȃ�,0,,,,,,,,,,
�k�C���X�y�[�X�|�[�g(�����),2023/03/01 23:00:00,0.0,0,93,0,1012.2,0,1015.2,0,2.6,0,�k��,0,7.5,0,�k��,0,0,0,�Ȃ�,0,,,,,,,,,,
�k�C���X�y�[�X�|�[�g(�����),2023/03/02 00:00:00,-0.3,0,98,0,1011.6,0,1014.6,0,3.3,0,�k��,0,7.4,0,�k�k��,0,0,0,�Ȃ�,0,,,,,,,,,,
�k�C���X�y�[�X�|�[�g(�����),2023/03/02 01:00:00,-0.7,0,99,0,1011.3,0,1014.3,0,4.1,0,�k�k��,0,8.6,0,�k�k��,0,0,0,�Ȃ�,0,,,,,,,,,,
�k�C���X�y�[�X�|�[�g(�����),2023/03/02 02:00:00,-0.7,0,100,0,1010.6,0,1013.6,0,2.5,0,�k�k��,0,7.6,0,�k�k��,0,0,0,�Ȃ�,0,,,,,,,,,,
�k�C���X�y�[�X�|�[�g(�����),2023/03/02 03:00:00,-0.7,0,99,0,1009.8,0,1012.8,0,2.4,0,�k�k��,0,4.7,0,�k�k��,0,0,0,�Ȃ�,0,,,,,,,,,,
�k�C���X�y�[�X�|�[�g(�����),2023/03/02 04:00:00,-0.8,0,100,0,1009.2,0,1012.2,0,2.5,0,�k�k��,0,3.6,0,�k��,0,0,0,�Ȃ�,0,,,,,,,,,,
�k�C���X�y�[�X�|�[�g(�����),2023/03/02 05:00:00,-0.7,0,100,0,1008.7,0,1011.7,0,3.0,0,�k�k��,0,4.1,0,�k�k��,0,0,0,�Ȃ�,0,,,,,,,,,,
�k�C���X�y�[�X�|�[�g(�����),2023/03/02 06:00:00,-0.8,0,100,0,1008.7,0,1011.7,0,2.5,0,�k�k��,0,6.1,0,�k�k��,0,0,0,�Ȃ�,0,,,,,,,,,,
�k�C���X�y�[�X�|�[�g(�����),2023/03/02 07:00:00,-0.7,0,100,0,1008.7,0,1011.7,0,2.0,0,�k��,0,3.5,0,�k�k��,0,15,0,�Ȃ�,0,,,,,,,,,,
�k�C���X�y�[�X�|�[�g(�����),2023/03/02 08:00:00,-0.3,0,98,0,1007.8,0,1010.8,0,2.2,0,�k�k��,0,3.6,0,�k��,0,96,0,����,0,,,,,,,,,,
�k�C���X�y�[�X�|�[�g(�����),2023/03/02 09:00:00,0.8,0,92,0,1007.9,0,1010.9,0,2.9,0,�k��,0,4.9,0,�k�k��,0,193,0,����,0,,,,,,,,,,
�k�C���X�y�[�X�|�[�g(�����),2023/03/02 10:00:00,2.3,0,74,0,1007.6,0,1010.6,0,1.5,0,�k,0,4.8,0,�k�k��,0,400,0,�Ȃ�,0,,,,,,,,,,
�k�C���X�y�[�X�|�[�g(�����),2023/03/02 11:00:00,2.7,0,71,0,1007.6,0,1010.6,0,1.2,0,�k�k��,0,5.4,0,�k�k��,0,417,0,�Ȃ�,0,,,,,,,,,,
�k�C���X�y�[�X�|�[�g(�����),2023/03/02 12:00:00,2.6,0,64,0,1006.8,0,1009.8,0,3.1,0,�k�k��,0,6.0,0,�k�k��,0,419,0,�Ȃ�,0,,,,,,,,,,
�k�C���X�y�[�X�|�[�g(�����),2023/03/02 13:00:00,2.5,0,63,0,1006.2,0,1009.2,0,1.3,0,�k�k��,0,5.1,0,�k�k��,0,298,0,�Ȃ�,0,,,,,,,,,,
�k�C���X�y�[�X�|�[�g(�����),2023/03/02 14:00:00,2.9,0,61,0,1006.3,0,1009.3,0,1.9,0,�k�k��,0,6.2,0,�k�k��,0,249,0,�Ȃ�,0,,,,,,,,,,
�k�C���X�y�[�X�|�[�g(�����),2023/03/02 15:00:00,3.3,0,58,0,1006.9,0,1009.9,0,1.4,0,�k,0,4.4,0,�k�k��,0,322,0,�Ȃ�,0,,,,,,,,,,
�k�C���X�y�[�X�|�[�g(�����),2023/03/02 16:00:00,2.4,0,62,0,1007.9,0,1010.9,0,2.2,0,�k�k��,0,4.6,0,�k��,0,109,0,�Ȃ�,0,,,,,,,,,,
�k�C���X�y�[�X�|�[�g(�����),2023/03/02 17:00:00,1.7,0,64,0,1008.6,0,1011.6,0,2.2,0,�k�k��,0,4.8,0,�k�k��,0,35,0,�Ȃ�,0,,,,,,,,,,
�k�C���X�y�[�X�|�[�g(�����),2023/03/02 18:00:00,0.8,0,68,0,1009.2,0,1012.2,0,3.0,0,�k�k��,0,4.7,0,�k�k��,0,1,0,�Ȃ�,0,,,,,,,,,,
�k�C���X�y�[�X�|�[�g(�����),2023/03/02 19:00:00,0.2,0,69,0,1010.1,0,1013.1,0,3.3,0,�k�k��,0,5.7,0,�k�k��,0,0,0,�Ȃ�,0,,,,,,,,,,
�k�C���X�y�[�X�|�[�g(�����),2023/03/02 20:00:00,-0.5,0,72,0,1010.7,0,1013.7,0,2.6,0,�k��,0,4.4,0,�k�k��,0,0,0,�Ȃ�,0,,,,,,,,,,
�k�C���X�y�[�X�|�[�g(�����),2023/03/02 21:00:00,-1.5,0,75,0,1011.3,0,1014.4,0,1.4,0,���k��,0,3.8,0,�k��,0,0,0,�Ȃ�,0,,,,,,,,,,
�k�C���X�y�[�X�|�[�g(�����),2023/03/02 22:00:00,-2.5,0,79,0,1011.9,0,1015.0,0,0.4,0,�k�k��,0,1.7,0,�k��,0,0,0,�Ȃ�,0,,,,,,,,,,
�k�C���X�y�[�X�|�[�g(�����),2023/03/02 23:00:00,-2.5,0,79,0,1012.4,0,1015.5,0,2.8,0,�k��,0,4.0,0,�k��,0,0,0,�Ȃ�,0,,,,,,,,,,
�k�C���X�y�[�X�|�[�g(�����),2023/03/03 00:00:00,-3.3,0,78,0,1012.7,0,1015.8,0,0.9,0,��쓌,0,3.6,0,�k��,0,0,0,�Ȃ�,0,,,,,,,,,,
�k�C���X�y�[�X�|�[�g(�����),2023/03/03 01:00:00,-4.5,0,78,0,1013.3,0,1016.4,0,1.5,0,��쐼,0,2.7,0,�쐼,0,0,0,�Ȃ�,0,,,,,,,,,,
�k�C���X�y�[�X�|�[�g(�����),2023/03/03 02:00:00,-3.8,0,69,0,1013.2,0,1016.3,0,2.5,0,��,0,3.3,0,��,0,0,0,�Ȃ�,0,,,,,,,,,,
�k�C���X�y�[�X�|�[�g(�����),2023/03/03 03:00:00,-3.8,0,69,0,1013.6,0,1016.7,0,1.6,0,���k��,0,4.3,0,��,0,0,0,�Ȃ�,0,,,,,,,,,,
�k�C���X�y�[�X�|�[�g(�����),2023/03/03 04:00:00,-4.7,0,70,0,1014.1,0,1017.2,0,1.4,0,�쐼,0,2.8,0,��,0,0,0,�Ȃ�,0,,,,,,,,,,
�k�C���X�y�[�X�|�[�g(�����),2023/03/03 05:00:00,-5.6,0,76,0,1014.2,0,1017.3,0,1.2,0,�쐼,0,2.7,0,��,0,0,0,�Ȃ�,0,,,,,,,,,,
�k�C���X�y�[�X�|�[�g(�����),2023/03/03 06:00:00,-7.0,0,76,0,1014.7,0,1017.8,0,1.3,0,��,0,3.8,0,���쐼,0,0,0,�Ȃ�,0,,,,,,,,,,
�k�C���X�y�[�X�|�[�g(�����),2023/03/03 07:00:00,-4.2,0,74,0,1015.4,0,1018.5,0,0.4,0,��쐼,0,2.0,0,���k��,0,44,0,�Ȃ�,0,,,,,,,,,,
�k�C���X�y�[�X�|�[�g(�����),2023/03/03 08:00:00,-2.4,0,70,0,1015.9,0,1019.0,0,1.6,0,�쐼,0,2.2,0,���쐼,0,135,0,�Ȃ�,0,,,,,,,,,,
�k�C���X�y�[�X�|�[�g(�����),2023/03/03 09:00:00,0.0,0,59,0,1015.8,0,1018.8,0,1.1,0,���쐼,0,3.1,0,�쐼,0,301,0,�Ȃ�,0,,,,,,,,,,
�k�C���X�y�[�X�|�[�g(�����),2023/03/03 10:00:00,1.9,0,49,0,1016.0,0,1019.0,0,3.2,0,�쐼,0,4.7,0,�쐼,0,489,0,�Ȃ�,0,,,,,,,,,,
�k�C���X�y�[�X�|�[�g(�����),2023/03/03 11:00:00,2.7,0,52,0,1015.3,0,1018.3,0,4.0,0,��쓌,0,6.7,0,��,0,624,0,�Ȃ�,0,,,,,,,,,,
�k�C���X�y�[�X�|�[�g(�����),2023/03/03 12:00:00,2.7,0,55,0,1015.0,0,1018.0,0,4.0,0,��쓌,0,6.7,0,��,0,617,0,�Ȃ�,0,,,,,,,,,,
�k�C���X�y�[�X�|�[�g(�����),2023/03/03 13:00:00,4.0,0,42,0,1014.2,0,1017.2,0,4.4,0,�쐼,0,7.9,0,�쓌,0,712,0,�Ȃ�,0,,,,,,,,,,
�k�C���X�y�[�X�|�[�g(�����),2023/03/03 14:00:00,4.2,0,43,0,1014.4,0,1017.4,0,4.0,0,�쐼,0,7.4,0,�쐼,0,546,0,�Ȃ�,0,,,,,,,,,,
�k�C���X�y�[�X�|�[�g(�����),2023/03/03 15:00:00,3.8,0,45,0,1014.9,0,1017.9,0,4.5,0,��,0,7.3,0,�쐼,0,456,0,�Ȃ�,0,,,,,,,,,,
�k�C���X�y�[�X�|�[�g(�����),2023/03/03 16:00:00,2.1,0,54,0,1015.9,0,1018.9,0,5.0,0,�k��,0,9.1,0,�k��,0,212,0,�Ȃ�,0,,,,,,,,,,
�k�C���X�y�[�X�|�[�g(�����),2023/03/03 17:00:00,1.7,0,56,0,1017.0,0,1020.0,0,3.2,0,�k��,0,5.8,0,�k��,0,94,0,�Ȃ�,0,,,,,,,,,,
�k�C���X�y�[�X�|�[�g(�����),2023/03/03 18:00:00,0.5,0,60,0,1018.0,0,1021.0,0,3.7,0,�k��,0,8.4,0,�k��,0,3,0,�Ȃ�,0,,,,,,,,,,
�k�C���X�y�[�X�|�[�g(�����),2023/03/03 19:00:00,-0.1,0,64,0,1018.9,0,1022.0,0,2.2,0,��,0,4.3,0,�k��,0,0,0,�Ȃ�,0,,,,,,,,,,
�k�C���X�y�[�X�|�[�g(�����),2023/03/03 20:00:00,-1.9,0,70,0,1019.3,0,1022.4,0,1.1,0,��,0,3.2,0,���쐼,0,0,0,�Ȃ�,0,,,,,,,,,,
�k�C���X�y�[�X�|�[�g(�����),2023/03/03 21:00:00,-2.2,0,73,0,1019.6,0,1022.7,0,1.0,0,�k��,0,2.1,0,��,0,0,0,�Ȃ�,0,,,,,,,,,,
�k�C���X�y�[�X�|�[�g(�����),2023/03/03 22:00:00,-3.9,0,77,0,1019.7,0,1022.8,0,1.3,0,���쐼,0,1.8,0,���쐼,0,0,0,�Ȃ�,0,,,,,,,,,,
�k�C���X�y�[�X�|�[�g(�����),2023/03/03 23:00:00,-4.5,0,79,0,1019.4,0,1022.5,0,1.0,0,��,0,2.2,0,���쐼,0,0,0,�Ȃ�,0,,,,,,,,,,
�k�C���X�y�[�X�|�[�g(�����),2023/03/04 00:00:00,-5.3,0,82,0,1019.0,0,1022.1,0,0.9,0,��,0,2.5,0,���쐼,0,0,0,�Ȃ�,0,,,,,,,,,,
�k�C���X�y�[�X�|�[�g(�����),2023/03/04 01:00:00,-6.0,0,83,0,1018.7,0,1021.8,0,0.9,0,���k��,0,2.4,0,���쐼,0,0,0,�Ȃ�,0,,,,,,,,,,
�k�C���X�y�[�X�|�[�g(�����),2023/03/04 02:00:00,-6.0,0,84,0,1018.6,0,1021.7,0,1.2,0,���쐼,0,1.8,0,���쐼,0,0,0,�Ȃ�,0,,,,,,,,,,
�k�C���X�y�[�X�|�[�g(�����),2023/03/04 03:00:00,-6.0,0,80,0,1018.4,0,1021.5,0,1.8,0,���쐼,0,3.1,0,�쐼,0,0,0,�Ȃ�,0,,,,,,,,,,
�k�C���X�y�[�X�|�[�g(�����),2023/03/04 04:00:00,-4.6,0,76,0,1018.4,0,1021.5,0,1.2,0,�k�k��,0,2.4,0,���쐼,0,0,0,�Ȃ�,0,,,,,,,,,,
�k�C���X�y�[�X�|�[�g(�����),2023/03/04 05:00:00,-4.1,0,76,0,1018.5,0,1021.6,0,1.9,0,���쐼,0,2.6,0,���쐼,0,0,0,�Ȃ�,0,,,,,,,,,,
�k�C���X�y�[�X�|�[�g(�����),2023/03/04 06:00:00,-3.2,0,87,0,1018.5,0,1021.6,0,1.1,0,��,0,3.9,0,�k�k��,0,0,0,�Ȃ�,0,,,,,,,,,,
�k�C���X�y�[�X�|�[�g(�����),2023/03/04 07:00:00,-3.9,0,77,0,1018.9,0,1022.0,0,0.7,0,���k��,0,2.7,0,�k�k��,0,32,0,�Ȃ�,0,,,,,,,,,,
�k�C���X�y�[�X�|�[�g(�����),2023/03/04 08:00:00,-1.8,0,64,0,1019.4,0,1022.5,0,1.3,0,��,0,2.2,0,���쐼,0,155,0,�Ȃ�,0,,,,,,,,,,
�k�C���X�y�[�X�|�[�g(�����),2023/03/04 09:00:00,0.3,0,52,0,1019.4,0,1022.5,0,1.1,0,���k��,0,1.8,0,���k��,0,314,0,�Ȃ�,0,,,,,,,,,,
�k�C���X�y�[�X�|�[�g(�����),2023/03/04 10:00:00,3.8,0,41,0,1019.5,0,1022.5,0,0.5,0,�k,0,1.5,0,�k�k��,0,484,0,�Ȃ�,0,,,,,,,,,,
�k�C���X�y�[�X�|�[�g(�����),2023/03/04 11:00:00,2.0,0,46,0,1019.5,0,1022.5,0,3.0,0,��,0,4.2,0,��,0,629,0,�Ȃ�,0,,,,,,,,,,
�k�C���X�y�[�X�|�[�g(�����),2023/03/04 12:00:00,0.7,0,59,0,1019.0,0,1022.0,0,3.0,0,�쓌,0,4.6,0,��,0,610,0,�Ȃ�,0,,,,,,,,,,
�k�C���X�y�[�X�|�[�g(�����),2023/03/04 13:00:00,0.2,0,68,0,1018.8,0,1021.9,0,3.0,0,��,0,5.3,0,��쐼,0,398,0,�Ȃ�,0,,,,,,,,,,
�k�C���X�y�[�X�|�[�g(�����),2023/03/04 14:00:00,1.2,0,60,0,1018.8,0,1021.8,0,2.3,0,��쓌,0,4.7,0,��쓌,0,325,0,�Ȃ�,0,,,,,,,,,,
�k�C���X�y�[�X�|�[�g(�����),2023/03/04 15:00:00,1.0,0,60,0,1019.5,0,1022.5,0,1.3,0,��,0,3.7,0,��쓌,0,295,0,�Ȃ�,0,,,,,,,,,,
�k�C���X�y�[�X�|�[�g(�����),2023/03/04 16:00:00,-0.5,0,87,0,1020.5,0,1023.6,0,1.0,0,�k�k��,0,3.3,0,���k��,0,130,0,�Ȃ�,0,,,,,,,,,,
�k�C���X�y�[�X�|�[�g(�����),2023/03/04 17:00:00,-1.3,0,92,0,1021.3,0,1024.4,0,1.4,0,��,0,2.8,0,��,0,33,0,�Ȃ�,0,,,,,,,,,,
�k�C���X�y�[�X�|�[�g(�����),2023/03/04 18:00:00,-1.7,0,90,0,1022.4,0,1025.5,0,0.7,0,�k,0,3.5,0,��,0,3,0,�Ȃ�,0,,,,,,,,,,
�k�C���X�y�[�X�|�[�g(�����),2023/03/04 19:00:00,-1.6,0,94,0,1023.1,0,1026.2,0,0.4,0,�k��,0,1.9,0,�k�k��,0,0,0,�Ȃ�,0,,,,,,,,,,
�k�C���X�y�[�X�|�[�g(�����),2023/03/04 20:00:00,-2.0,0,94,0,1023.4,0,1026.5,0,1.1,0,���쐼,0,1.7,0,���쐼,0,0,0,�Ȃ�,0,,,,,,,,,,
�k�C���X�y�[�X�|�[�g(�����),2023/03/04 21:00:00,-1.7,0,93,0,1023.9,0,1027.0,0,1.1,0,���k��,0,1.7,0,���k��,0,0,0,�Ȃ�,0,,,,,,,,,,
�k�C���X�y�[�X�|�[�g(�����),2023/03/04 22:00:00,-2.3,0,94,0,1023.9,0,1027.0,0,0.8,0,���k��,0,1.5,0,���k��,0,0,0,�Ȃ�,0,,,,,,,,,,
�k�C���X�y�[�X�|�[�g(�����),2023/03/04 23:00:00,-3.3,0,96,0,1023.7,0,1026.8,0,1.4,0,��,0,2.4,0,���쐼,0,0,0,�Ȃ�,0,,,,,,,,,,
�k�C���X�y�[�X�|�[�g(�����),2023/03/05 00:00:00,-3.6,0,96,0,1023.8,0,1026.9,0,0.9,0,��,0,3.2,0,��,0,0,0,�Ȃ�,0,,,,,,,,,,
�k�C���X�y�[�X�|�[�g(�����),2023/03/05 01:00:00,-4.0,0,97,0,1023.8,0,1026.9,0,1.2,0,��,0,1.8,0,��,0,0,0,�Ȃ�,0,,,,,,,,,,
�k�C���X�y�[�X�|�[�g(�����),2023/03/05 02:00:00,-4.8,0,97,0,1023.2,0,1026.3,0,1.8,0,���k��,0,2.6,0,�k��,0,0,0,�Ȃ�,0,,,,,,,,,,
�k�C���X�y�[�X�|�[�g(�����),2023/03/05 03:00:00,-5.9,0,97,0,1022.9,0,1026.0,0,1.2,0,��,0,2.5,0,��,0,0,0,�Ȃ�,0,,,,,,,,,,
�k�C���X�y�[�X�|�[�g(�����),2023/03/05 04:00:00,-5.0,0,96,0,1023.2,0,1026.3,0,0.9,0,�k��,0,2.1,0,�k��,0,0,0,�Ȃ�,0,,,,,,,,,,
�k�C���X�y�[�X�|�[�g(�����),2023/03/05 05:00:00,-4.9,0,94,0,1023.3,0,1026.4,0,1.5,0,��,0,2.4,0,�k��,0,0,0,�Ȃ�,0,,,,,,,,,,
�k�C���X�y�[�X�|�[�g(�����),2023/03/05 06:00:00,-5.2,0,94,0,1023.2,0,1026.3,0,1.8,0,���k��,0,4.6,0,���k��,0,0,0,�Ȃ�,0,,,,,,,,,,
�k�C���X�y�[�X�|�[�g(�����),2023/03/05 07:00:00,-5.2,0,91,0,1023.0,0,1026.1,0,1.7,0,��,0,3.4,0,��,0,31,0,�Ȃ�,0,,,,,,,,,,
�k�C���X�y�[�X�|�[�g(�����),2023/03/05 08:00:00,-3.0,0,78,0,1023.2,0,1026.3,0,1.5,0,��,0,3.3,0,���k��,0,124,0,�Ȃ�,0,,,,,,,,,,
�k�C���X�y�[�X�|�[�g(�����),2023/03/05 09:00:00,-0.6,0,63,0,1023.1,0,1026.2,0,1.2,0,���쐼,0,1.9,0,���쐼,0,263,0,����,0,,,,,,,,,,
�k�C���X�y�[�X�|�[�g(�����),2023/03/05 10:00:00,2.8,0,52,0,1022.6,0,1025.6,0,0.6,0,�k�k��,0,1.4,0,�k��,0,486,0,�Ȃ�,0,,,,,,,,,,
�k�C���X�y�[�X�|�[�g(�����),2023/03/05 11:00:00,2.0,0,59,0,1022.0,0,1025.0,0,1.4,0,���쓌,0,3.9,0,���쓌,0,634,0,�Ȃ�,0,,,,,,,,,,
�k�C���X�y�[�X�|�[�g(�����),2023/03/05 12:00:00,1.4,0,66,0,1020.9,0,1023.9,0,2.4,0,��쓌,0,4.2,0,�쓌,0,704,0,�Ȃ�,0,,,,,,,,,,
�k�C���X�y�[�X�|�[�g(�����),2023/03/05 13:00:00,2.0,0,59,0,1019.6,0,1022.6,0,2.1,0,��쓌,0,3.5,0,��쓌,0,695,0,�Ȃ�,0,,,,,,,,,,
�k�C���X�y�[�X�|�[�g(�����),2023/03/05 14:00:00,1.8,0,59,0,1019.3,0,1022.3,0,1.8,0,���쓌,0,3.5,0,�쓌,0,604,0,�Ȃ�,0,,,,,,,,,,
�k�C���X�y�[�X�|�[�g(�����),2023/03/05 15:00:00,2.5,0,55,0,1018.8,0,1021.8,0,1.7,0,��,0,3.1,0,�쓌,0,455,0,�Ȃ�,0,,,,,,,,,,
�k�C���X�y�[�X�|�[�g(�����),2023/03/05 16:00:00,3.2,0,50,0,1018.4,0,1021.4,0,0.6,0,���쓌,0,2.6,0,�쓌,0,280,0,�Ȃ�,0,,,,,,,,,,
�k�C���X�y�[�X�|�[�g(�����),2023/03/05 17:00:00,1.3,0,69,0,1018.4,0,1021.4,0,0.8,0,��,0,2.2,0,�쓌,0,106,0,�Ȃ�,0,,,,,,,,,,
�k�C���X�y�[�X�|�[�g(�����),2023/03/05 18:00:00,-0.1,0,78,0,1018.6,0,1021.7,0,0.4,0,��쐼,0,1.4,0,���쐼,0,6,0,�Ȃ�,0,,,,,,,,,,
�k�C���X�y�[�X�|�[�g(�����),2023/03/05 19:00:00,-0.9,0,78,0,1018.4,0,1021.5,0,1.5,0,���k��,0,2.3,0,���k��,0,0,0,�Ȃ�,0,,,,,,,,,,
�k�C���X�y�[�X�|�[�g(�����),2023/03/05 20:00:00,-1.7,0,67,0,1018.3,0,1021.4,0,1.1,0,�쐼,0,2.2,0,�쐼,0,0,0,�Ȃ�,0,,,,,,,,,,
�k�C���X�y�[�X�|�[�g(�����),2023/03/05 21:00:00,-1.4,0,65,0,1017.9,0,1021.0,0,1.7,0,���쐼,0,2.3,0,���쐼,0,0,0,�Ȃ�,0,,,,,,,,,,
�k�C���X�y�[�X�|�[�g(�����),2023/03/05 22:00:00,-2.5,0,67,0,1017.8,0,1020.9,0,0.9,0,��,0,1.7,0,���쐼,0,0,0,�Ȃ�,0,,,,,,,,,,
�k�C���X�y�[�X�|�[�g(�����),2023/03/05 23:00:00,-3.4,0,70,0,1017.3,0,1020.4,0,1.7,0,�쐼,0,2.7,0,�쐼,0,0,0,�Ȃ�,0,,,,,,,,,,
�k�C���X�y�[�X�|�[�g(�����),2023/03/06 00:00:00,-3.2,0,68,0,1017.1,0,1020.2,0,1.4,0,���k��,0,3.2,0,�쐼,0,0,0,�Ȃ�,0,,,,,,,,,,
�k�C���X�y�[�X�|�[�g(�����),2023/03/06 01:00:00,-2.4,0,70,0,1017.0,0,1020.1,0,1.1,0,��,0,2.0,0,���k��,0,0,0,�Ȃ�,0,,,,,,,,,,
�k�C���X�y�[�X�|�[�g(�����),2023/03/06 02:00:00,-3.7,0,67,0,1016.7,0,1019.8,0,1.4,0,���쐼,0,2.7,0,���쐼,0,0,0,�Ȃ�,0,,,,,,,,,,
�k�C���X�y�[�X�|�[�g(�����),2023/03/06 03:00:00,-3.3,0,76,0,1016.4,0,1019.5,0,0.7,0,���k��,0,2.1,0,��쐼,0,0,0,�Ȃ�,0,,,,,,,,,,
�k�C���X�y�[�X�|�[�g(�����),2023/03/06 04:00:00,-3.8,0,79,0,1016.3,0,1019.4,0,1.2,0,�k��,0,2.0,0,�k��,0,0,0,�Ȃ�,0,,,,,,,,,,
�k�C���X�y�[�X�|�[�g(�����),2023/03/06 05:00:00,-4.0,0,75,0,1016.4,0,1019.5,0,1.2,0,��,0,2.9,0,���쐼,0,0,0,�Ȃ�,0,,,,,,,,,,
�k�C���X�y�[�X�|�[�g(�����),2023/03/06 06:00:00,-4.7,0,80,0,1016.5,0,1019.6,0,1.0,0,���k��,0,3.1,0,���쐼,0,0,0,�Ȃ�,0,,,,,,,,,,
�k�C���X�y�[�X�|�[�g(�����),2023/03/06 07:00:00,-4.3,0,73,0,1016.5,0,1019.6,0,1.4,0,�k��,0,3.0,0,���쐼,0,42,0,�Ȃ�,0,,,,,,,,,,
�k�C���X�y�[�X�|�[�g(�����),2023/03/06 08:00:00,0.4,0,62,0,1017.0,0,1020.0,0,2.1,0,�쐼,0,2.8,0,�쐼,0,159,0,�Ȃ�,0,,,,,,,,,,
�k�C���X�y�[�X�|�[�g(�����),2023/03/06 09:00:00,4.5,0,45,0,1016.7,0,1019.7,0,1.5,0,���쐼,0,2.4,0,�쐼,0,334,0,�Ȃ�,0,,,,,,,,,,
�k�C���X�y�[�X�|�[�g(�����),2023/03/06 10:00:00,8.4,0,37,0,1016.3,0,1019.3,0,0.4,0,�쐼,0,2.7,0,�쓌,0,506,0,�Ȃ�,0,,,,,,,,,,
�k�C���X�y�[�X�|�[�g(�����),2023/03/06 11:00:00,7.0,0,35,0,1015.7,0,1018.7,0,1.4,0,���쓌,0,3.3,0,�쓌,0,649,0,�Ȃ�,0,,,,,,,,,,
�k�C���X�y�[�X�|�[�g(�����),2023/03/06 12:00:00,6.0,0,39,0,1014.8,0,1017.8,0,2.2,0,�쓌,0,3.1,0,�쓌,0,702,0,�Ȃ�,0,,,,,,,,,,
�k�C���X�y�[�X�|�[�g(�����),2023/03/06 13:00:00,7.1,0,36,0,1013.6,0,1016.6,0,1.1,0,��,0,3.7,0,�쓌,0,713,0,�Ȃ�,0,,,,,,,,,,
�k�C���X�y�[�X�|�[�g(�����),2023/03/06 14:00:00,7.5,0,37,0,1013.0,0,1016.0,0,1.6,0,���쓌,0,3.5,0,���쓌,0,620,0,�Ȃ�,0,,,,,,,,,,
�k�C���X�y�[�X�|�[�g(�����),2023/03/06 15:00:00,9.6,0,42,0,1013.0,0,1015.9,0,5.3,0,��,0,7.4,0,��,0,467,0,�Ȃ�,0,,,,,,,,,,
�k�C���X�y�[�X�|�[�g(�����),2023/03/06 16:00:00,8.9,0,44,0,1012.9,0,1015.8,0,4.9,0,��,0,7.5,0,��,0,290,0,�Ȃ�,0,,,,,,,,,,
�k�C���X�y�[�X�|�[�g(�����),2023/03/06 17:00:00,7.5,0,51,0,1013.4,0,1016.4,0,3.0,0,���쐼,0,6.8,0,���쐼,0,103,0,�Ȃ�,0,,,,,,,,,,
�k�C���X�y�[�X�|�[�g(�����),2023/03/06 18:00:00,6.6,0,57,0,1013.6,0,1016.6,0,3.7,0,��,0,6.6,0,���쐼,0,5,0,�Ȃ�,0,,,,,,,,,,
�k�C���X�y�[�X�|�[�g(�����),2023/03/06 19:00:00,6.5,0,58,0,1014.0,0,1017.0,0,4.1,0,��,0,6.7,0,��,0,0,0,�Ȃ�,0,,,,,,,,,,
�k�C���X�y�[�X�|�[�g(�����),2023/03/06 20:00:00,6.6,0,58,0,1013.8,0,1016.8,0,3.5,0,��,0,6.6,0,���k��,0,0,0,�Ȃ�,0,,,,,,,,,,
�k�C���X�y�[�X�|�[�g(�����),2023/03/06 21:00:00,5.6,0,61,0,1014.0,0,1017.0,0,0.6,0,���쐼,0,5.9,0,���k��,0,0,0,�Ȃ�,0,,,,,,,,,,
�k�C���X�y�[�X�|�[�g(�����),2023/03/06 22:00:00,4.7,0,67,0,1013.7,0,1016.7,0,3.1,0,���k��,0,5.4,0,��,0,0,0,�Ȃ�,0,,,,,,,,,,
�k�C���X�y�[�X�|�[�g(�����),2023/03/06 23:00:00,6.6,0,55,0,1013.6,0,1016.6,0,2.7,0,��,0,6.3,0,��,0,0,0,�Ȃ�,0,,,,,,,,,,
�k�C���X�y�[�X�|�[�g(�����),2023/03/07 00:00:00,3.9,0,61,0,1013.3,0,1016.3,0,0.6,0,�쐼,0,3.0,0,��,0,0,0,�Ȃ�,0,,,,,,,,,,
�k�C���X�y�[�X�|�[�g(�����),2023/03/07 01:00:00,1.2,0,74,0,1013.0,0,1016.0,0,0.6,0,�k��,0,1.7,0,�k��,0,0,0,�Ȃ�,0,,,,,,,,,,
�k�C���X�y�[�X�|�[�g(�����),2023/03/07 02:00:00,0.9,0,77,0,1012.6,0,1015.6,0,1.3,0,��,0,3.4,0,�k�k��,0,0,0,�Ȃ�,0,,,,,,,,,,
�k�C���X�y�[�X�|�[�g(�����),2023/03/07 03:00:00,1.2,0,79,0,1012.2,0,1015.2,0,0.6,0,���쐼,0,2.7,0,�쐼,0,0,0,�Ȃ�,0,,,,,,,,,,
�k�C���X�y�[�X�|�[�g(�����),2023/03/07 04:00:00,-0.1,0,84,0,1012.1,0,1015.1,0,1.0,0,�k,0,2.0,0,�k�k��,0,0,0,�Ȃ�,0,,,,,,,,,,
�k�C���X�y�[�X�|�[�g(�����),2023/03/07 05:00:00,0.4,0,83,0,1012.0,0,1015.0,0,1.1,0,�k�k��,0,2.8,0,�k�k��,0,0,0,�Ȃ�,0,,,,,,,,,,
�k�C���X�y�[�X�|�[�g(�����),2023/03/07 06:00:00,1.4,0,78,0,1011.9,0,1014.9,0,0.9,0,���쐼,0,2.4,0,�쐼,0,0,0,�Ȃ�,0,,,,,,,,,,
�k�C���X�y�[�X�|�[�g(�����),2023/03/07 07:00:00,1.4,0,81,0,1012.3,0,1015.3,0,1.0,0,�쐼,0,1.9,0,���쐼,0,25,0,�Ȃ�,0,,,,,,,,,,
�k�C���X�y�[�X�|�[�g(�����),2023/03/07 08:00:00,1.3,0,79,0,1012.6,0,1015.6,0,1.0,0,���쐼,0,2.6,0,�쐼,0,62,0,�Ȃ�,0,,,,,,,,,,
�k�C���X�y�[�X�|�[�g(�����),2023/03/07 09:00:00,3.9,0,72,0,1012.6,0,1015.6,0,1.1,0,��,0,3.0,0,���쐼,0,152,0,�Ȃ�,0,,,,,,,,,,
�k�C���X�y�[�X�|�[�g(�����),2023/03/07 10:00:00,8.7,0,58,0,1011.9,0,1014.8,0,3.1,0,�쐼,0,5.2,0,�쐼,0,250,0,�Ȃ�,0,,,,,,,,,,
�k�C���X�y�[�X�|�[�g(�����),2023/03/07 11:00:00,10.2,0,52,0,1011.9,0,1014.8,0,2.2,0,�쐼,0,5.2,0,�쐼,0,372,0,�Ȃ�,0,,,,,,,,,,
�k�C���X�y�[�X�|�[�g(�����),2023/03/07 12:00:00,11.0,0,48,0,1011.4,0,1014.3,0,4.6,0,��,0,9.2,0,��,0,661,0,�Ȃ�,0,,,,,,,,,,
�k�C���X�y�[�X�|�[�g(�����),2023/03/07 13:00:00,11.1,0,51,0,1011.0,0,1013.9,0,4.5,0,���쐼,0,10.1,0,��,0,700,0,�Ȃ�,0,,,,,,,,,,
�k�C���X�y�[�X�|�[�g(�����),2023/03/07 14:00:00,10.5,0,52,0,1011.0,0,1013.9,0,5.2,0,��,0,10.1,0,��,0,572,0,�Ȃ�,0,,,,,,,,,,
�k�C���X�y�[�X�|�[�g(�����),2023/03/07 15:00:00,9.7,0,57,0,1011.3,0,1014.2,0,4.0,0,���쐼,0,10.3,0,���쐼,0,354,0,�Ȃ�,0,,,,,,,,,,
�k�C���X�y�[�X�|�[�g(�����),2023/03/07 16:00:00,8.4,0,64,0,1011.5,0,1014.4,0,2.3,0,�쐼,0,6.2,0,���쐼,0,162,0,�Ȃ�,0,,,,,,,,,,
�k�C���X�y�[�X�|�[�g(�����),2023/03/07 17:00:00,7.0,0,68,0,1012.0,0,1015.0,0,1.7,0,��,0,3.9,0,���쐼,0,66,0,�Ȃ�,0,,,,,,,,,,
�k�C���X�y�[�X�|�[�g(�����),2023/03/07 18:00:00,6.2,0,69,0,1012.6,0,1015.6,0,1.1,0,�쐼,0,2.9,0,�쐼,0,4,0,�Ȃ�,0,,,,,,,,,,
�k�C���X�y�[�X�|�[�g(�����),2023/03/07 19:00:00,4.4,0,75,0,1013.3,0,1016.3,0,0.6,0,�k��,0,2.5,0,���k��,0,0,0,�Ȃ�,0,,,,,,,,,,
�k�C���X�y�[�X�|�[�g(�����),2023/03/07 20:00:00,3.1,0,80,0,1013.9,0,1016.9,0,0.6,0,���쓌,0,2.1,0,�k�k��,0,0,0,�Ȃ�,0,,,,,,,,,,
�k�C���X�y�[�X�|�[�g(�����),2023/03/07 21:00:00,2.2,0,84,0,1014.0,0,1017.0,0,2.0,0,��,0,2.6,0,��,0,0,0,�Ȃ�,0,,,,,,,,,,
�k�C���X�y�[�X�|�[�g(�����),2023/03/07 22:00:00,1.6,0,82,0,1014.3,0,1017.3,0,1.1,0,���k��,0,2.9,0,���쐼,0,0,0,�Ȃ�,0,,,,,,,,,,
�k�C���X�y�[�X�|�[�g(�����),2023/03/07 23:00:00,1.2,0,83,0,1014.4,0,1017.4,0,2.1,0,�쐼,0,3.5,0,��,0,0,0,�Ȃ�,0,,,,,,,,,,
�k�C���X�y�[�X�|�[�g(�����),2023/03/08 00:00:00,0.5,0,86,0,1014.4,0,1017.4,0,0.8,0,�k��,0,3.0,0,���쐼,0,0,0,�Ȃ�,0,,,,,,,,,,
�k�C���X�y�[�X�|�[�g(�����),2023/03/08 01:00:00,0.0,0,88,0,1014.7,0,1017.7,0,1.8,0,�쐼,0,2.6,0,���쐼,0,0,0,�Ȃ�,0,,,,,,,,,,
�k�C���X�y�[�X�|�[�g(�����),2023/03/08 02:00:00,-0.3,0,91,0,1014.7,0,1017.7,0,1.0,0,���k��,0,2.9,0,�쐼,0,0,0,�Ȃ�,0,,,,,,,,,,
�k�C���X�y�[�X�|�[�g(�����),2023/03/08 03:00:00,-1.0,0,95,0,1014.7,0,1017.8,0,0.7,0,�k��,0,1.6,0,���k��,0,0,0,�Ȃ�,0,,,,,,,,,,
�k�C���X�y�[�X�|�[�g(�����),2023/03/08 04:00:00,-2.3,0,93,0,1014.7,0,1017.8,0,2.7,0,���쐼,0,3.4,0,���쐼,0,0,0,����,0,,,,,,,,,,
�k�C���X�y�[�X�|�[�g(�����),2023/03/08 05:00:00,-0.7,0,98,0,1014.7,0,1017.8,0,0.5,0,���k��,0,2.4,0,���쐼,0,0,0,����,0,,,,,,,,,,
�k�C���X�y�[�X�|�[�g(�����),2023/03/08 06:00:00,-1.8,0,96,0,1014.5,0,1017.6,0,1.3,0,���쐼,0,2.2,0,���k��,0,0,0,����,0,,,,,,,,,,
�k�C���X�y�[�X�|�[�g(�����),2023/03/08 07:00:00,-1.5,0,94,0,1015.1,0,1018.2,0,0.9,0,���k��,0,2.9,0,���쐼,0,47,0,����,0,,,,,,,,,,
�k�C���X�y�[�X�|�[�g(�����),2023/03/08 08:00:00,2.1,0,81,0,1014.8,0,1017.8,0,0.9,0,���쐼,0,2.4,0,��,0,175,0,�Ȃ�,0,,,,,,,,,,
�k�C���X�y�[�X�|�[�g(�����),2023/03/08 09:00:00,2.9,0,74,0,1014.1,0,1017.1,0,2.8,0,���쓌,0,3.8,0,���쓌,0,329,0,�Ȃ�,0,,,,,,,,,,
�k�C���X�y�[�X�|�[�g(�����),2023/03/08 10:00:00,2.7,0,76,0,1013.7,0,1016.7,0,2.5,0,���쓌,0,3.8,0,���쓌,0,446,0,�Ȃ�,0,,,,,,,,,,
�k�C���X�y�[�X�|�[�g(�����),2023/03/08 11:00:00,4.0,0,76,0,1012.7,0,1015.7,0,1.2,0,��쓌,0,3.7,0,��,0,562,0,�Ȃ�,0,,,,,,,,,,
�k�C���X�y�[�X�|�[�g(�����),2023/03/08 12:00:00,7.1,0,69,0,1011.6,0,1014.6,0,4.1,0,��,0,6.9,0,��쓌,0,632,0,�Ȃ�,0,,,,,,,,,,
�k�C���X�y�[�X�|�[�g(�����),2023/03/08 13:00:00,8.5,0,60,0,1010.2,0,1013.1,0,3.8,0,��쓌,0,7.2,0,��쓌,0,611,0,�Ȃ�,0,,,,,,,,,,
�k�C���X�y�[�X�|�[�g(�����),2023/03/08 14:00:00,8.1,0,61,0,1009.3,0,1012.2,0,2.6,0,��쓌,0,7.2,0,�쓌,0,441,0,�Ȃ�,0,,,,,,,,,,
�k�C���X�y�[�X�|�[�g(�����),2023/03/08 15:00:00,8.5,0,64,0,1009.1,0,1012.0,0,2.4,0,��쓌,0,6.0,0,��쓌,0,397,0,�Ȃ�,0,,,,,,,,,,
�k�C���X�y�[�X�|�[�g(�����),2023/03/08 16:00:00,11.2,0,54,0,1009.4,0,1012.3,0,2.0,0,�쓌,0,5.6,0,�k��,0,251,0,�Ȃ�,0,,,,,,,,,,
�k�C���X�y�[�X�|�[�g(�����),2023/03/08 17:00:00,9.8,0,61,0,1009.6,0,1012.5,0,2.7,0,��쓌,0,4.4,0,��쓌,0,86,0,�Ȃ�,0,,,,,,,,,,
�k�C���X�y�[�X�|�[�g(�����),2023/03/08 18:00:00,8.6,0,69,0,1010.3,0,1013.2,0,3.5,0,�쓌,0,5.9,0,�쓌,0,3,0,�Ȃ�,0,,,,,,,,,,
�k�C���X�y�[�X�|�[�g(�����),2023/03/08 19:00:00,9.6,0,67,0,1010.4,0,1013.3,0,3.5,0,��,0,6.2,0,��쓌,0,0,0,�Ȃ�,0,,,,,,,,,,
�k�C���X�y�[�X�|�[�g(�����),2023/03/08 20:00:00,10.2,0,66,0,1010.6,0,1013.5,0,2.5,0,��쐼,0,4.3,0,��쐼,0,0,0,�Ȃ�,0,,,,,,,,,,
�k�C���X�y�[�X�|�[�g(�����),2023/03/08 21:00:00,9.2,0,66,0,1011.0,0,1013.9,0,2.4,0,�쐼,0,5.6,0,��쐼,0,0,0,�Ȃ�,0,,,,,,,,,,